Weather History for KMIW - August, 2012

Change the Weather History Date:

Thursday, August 9, 2012

  Actual Average Record
Temperature  
Mean Temperature 71 °F 72 °F  
Max Temperature 82 °F 82 °F 91 °F (2005)
Min Temperature 59 °F 61 °F 53 °F (2004)
Degree Days  
Heating Degree Days 0 0  
Month to date heating degree days 0 0  
Since 1 June heating degree days 12 34  
Since 1 July heating degree days 1 6  
Cooling Degree Days 6 7  
Month to date cooling degree days 82 65  
Year to date cooling degree days 904 531  
Since 1 June cooling degree days 768 481  
Growing Degree Days 20 (Base 50)    
Moisture  
Dew Point 63 °F    
Average Humidity 74    
Maximum Humidity 100    
Minimum Humidity 48    
Precipitation  
Precipitation 0.00 in 0.15 in 2.17 in (2006)
Month to date precipitation 0.71 1.21  
Year to date precipitation 9.42  
Sea Level Pressure  
Sea Level Pressure 29.94 in    
Wind  
Wind Speed 10 mph (North)    
Max Wind Speed 25 mph    
Max Gust Speed 33 mph    
Visibility 8 miles    
Events Fog    
T = Trace of Precipitation, MM = Missing Value Source: NWS Daily Summary

Daily Weather History Graph

Daily Weather History Graph

Search for Another Location

Airport or City:

Trip Planner

Search our weather history database for the weather conditions in past years. The results will help you decide how hot, cold, wet, or windy it might be!

Date:

Astronomy

Aug. 09, 2012 Rise Set
Actual Time 6:13 AM CDT 8:19 PM CDT
Civil Twilight 5:42 AM CDT 8:50 PM CDT
Nautical Twilight 5:05 AM CDT 9:28 PM CDT
Astronomical Twilight 4:23 AM CDT 10:09 PM CDT
Moon No Moon Rise 2:05 PM CDT (8/9)
Length of Visible Light 15h 07m
Length of Day
14h 06m
Waning Gibbous, 51% of the Moon is Illuminated
Aug 9
Waning Gibbous
Aug 9
Last Quarter
Aug 17
New
Aug 24
First Quarter
Aug 31
Full

Hourly Weather History & Observations

Time (CDT) Temp. Heat Index Dew Point Humidity Pressure Visibility Wind Dir Wind Speed Gust Speed Precip Events Conditions
12:53 AM 63.0 °F - 62.1 °F 97% 29.90 in 10.0 mi WNW 4.6 mph - N/A   Clear
1:53 AM 62.1 °F - 62.1 °F 100% 29.90 in 10.0 mi NE 5.8 mph - N/A   Partly Cloudy
2:53 AM 61.0 °F - 61.0 °F 100% 29.91 in 10.0 mi North 3.5 mph - N/A   Clear
3:21 AM 60.8 °F - 60.8 °F 100% 29.93 in 9.0 mi Calm Calm - N/A   Scattered Clouds
3:30 AM 62.6 °F - 62.6 °F 100% 29.93 in 10.0 mi NNW 4.6 mph - N/A   Mostly Cloudy
3:48 AM 62.6 °F - 62.6 °F 100% 29.92 in 2.5 mi North 5.8 mph - N/A   Overcast
3:53 AM 63.0 °F - 63.0 °F 100% 29.90 in 1.0 mi North 4.6 mph - N/A   Overcast
4:02 AM 62.6 °F - 62.6 °F 100% 29.92 in 0.8 mi Calm Calm - N/A   Mist
4:53 AM 63.0 °F - 63.0 °F 100% 29.90 in 0.5 mi North 9.2 mph - N/A Fog Fog
5:53 AM 63.0 °F - 63.0 °F 100% 29.92 in 0.8 mi North 4.6 mph - 0.01 in   Mist
6:00 AM 62.6 °F - 62.6 °F 100% 29.94 in 1.5 mi North 5.8 mph - N/A   Overcast
6:17 AM 62.6 °F - 62.6 °F 100% 29.94 in 2.5 mi North 6.9 mph - N/A   Overcast
6:27 AM 62.6 °F - 62.6 °F 100% 29.94 in 3.0 mi North 6.9 mph - N/A   Overcast
6:36 AM 62.6 °F - 62.6 °F 100% 29.94 in 2.5 mi North 4.6 mph - N/A   Overcast
6:53 AM 63.0 °F - 63.0 °F 100% 29.94 in 4.0 mi North 8.1 mph - N/A   Overcast
7:53 AM 64.0 °F - 64.0 °F 100% 29.94 in 3.0 mi North 9.2 mph - N/A   Overcast
8:26 AM 64.4 °F - 64.4 °F 100% 29.96 in 6.0 mi North 11.5 mph - N/A   Overcast
8:53 AM 66.9 °F - 66.0 °F 97% 29.95 in 9.0 mi North 8.1 mph - N/A   Overcast
9:08 AM 66.2 °F - 66.2 °F 100% 29.97 in 10.0 mi North 10.4 mph - N/A   Overcast
9:39 AM 69.8 °F - 66.2 °F 88% 29.97 in 10.0 mi North 10.4 mph - N/A   Overcast
9:53 AM 70.0 °F - 66.0 °F 87% 29.95 in 10.0 mi North 9.2 mph - N/A   Overcast
10:31 AM 69.8 °F - 64.4 °F 83% 29.97 in 10.0 mi NNW 16.1 mph - N/A   Overcast
10:53 AM 72.0 °F - 64.0 °F 76% 29.97 in 10.0 mi NNW 16.1 mph - N/A   Overcast
11:53 AM 73.0 °F - 64.0 °F 73% 29.96 in 10.0 mi NNW 16.1 mph 20.7 mph N/A   Overcast
12:43 PM 73.4 °F - 64.4 °F 73% 29.98 in 10.0 mi North 12.7 mph 20.7 mph N/A   Mostly Cloudy
12:53 PM 75.0 °F - 64.9 °F 71% 29.96 in 10.0 mi North 13.8 mph 19.6 mph N/A   Mostly Cloudy
1:22 PM 75.2 °F - 64.4 °F 69% 29.97 in 10.0 mi North 15.0 mph - N/A   Mostly Cloudy
1:53 PM 77.0 °F - 64.0 °F 64% 29.94 in 10.0 mi NNE 13.8 mph - N/A   Scattered Clouds
2:53 PM 79.0 °F - 63.0 °F 58% 29.94 in 10.0 mi North 12.7 mph - N/A   Partly Cloudy
3:53 PM 81.0 °F 81.9 °F 62.1 °F 52% 29.92 in 10.0 mi NNW 13.8 mph - N/A   Partly Cloudy
4:53 PM 81.0 °F 81.7 °F 61.0 °F 50% 29.90 in 10.0 mi North 9.2 mph - N/A   Clear
5:53 PM 80.1 °F 81.5 °F 63.0 °F 56% 29.90 in 10.0 mi NNW 9.2 mph - N/A   Mostly Cloudy
6:53 PM 79.0 °F - 57.0 °F 47% 29.91 in 10.0 mi NNW 13.8 mph - N/A   Clear
7:31 PM 73.4 °F - 62.6 °F 69% 29.95 in 10.0 mi NNE 15.0 mph - N/A   Partly Cloudy
7:53 PM 73.0 °F - 60.1 °F 64% 29.94 in 10.0 mi NNE 16.1 mph 24.2 mph N/A   Partly Cloudy
8:53 PM 66.9 °F - 62.1 °F 84% 29.97 in 10.0 mi North 4.6 mph - N/A   Clear
9:53 PM 62.1 °F - 59.0 °F 90% 29.99 in 10.0 mi North 5.8 mph - N/A   Clear
10:53 PM 59.0 °F - 57.9 °F 96% 30.00 in 10.0 mi North 6.9 mph - N/A   Clear
11:53 PM 60.1 °F - 57.9 °F 93% 30.00 in 10.0 mi North 8.1 mph - N/A   Clear